This is the latest recevied weather packets stored in our database for station/object NO9B. If no packets are shown the sender has not sent any weather packets the latest 1 day(s).
| Time | Temp. | Humidity | Pressure | Rain* | Wind** | Luminosity | Snow |
|---|---|---|---|---|---|---|---|
| 1777976367 | 7.78° C | 43% | 1007.2 hPa | 0 mm | 0.89 m/s, 318° | 0 W/m² | - |
| 1777976061 | 7.78° C | 42% | 1007.2 hPa | 0 mm | 0.89 m/s, 337° | 0 W/m² | - |
| 1777975757 | 7.78° C | 42% | 1007.5 hPa | 0 mm | 0 m/s | 0 W/m² | - |
| 1777975454 | 8.33° C | 41% | 1006.8 hPa | 0 mm | 2.68 m/s, 345° | 0 W/m² | - |
| 1777975149 | 8.33° C | 42% | 1006.8 hPa | 0 mm | 1.34 m/s, 299° | 0 W/m² | - |
| 1777974847 | 8.33° C | 42% | 1006.8 hPa | 0 mm | 0.45 m/s, 297° | 0 W/m² | - |
| 1777974543 | 8.33° C | 41% | 1006.9 hPa | 0 mm | 0.89 m/s, 296° | 0 W/m² | - |
| 1777974240 | 8.33° C | 41% | 1006.7 hPa | 0 mm | 0.89 m/s, 311° | 0 W/m² | - |
| 1777973935 | 8.33° C | 43% | 1007 hPa | 0 mm | 3.58 m/s, 190° | 0 W/m² | - |
| 1777973632 | 7.78° C | 44% | 1007.1 hPa | 0 mm | 0.45 m/s, 254° | 0 W/m² | - |
| 1777973330 | 7.78° C | 46% | 1007.1 hPa | 0 mm | 0 m/s | 0 W/m² | - |
| 1777973028 | 7.78° C | 45% | 1007.2 hPa | 0 mm | 0.45 m/s, 273° | 0 W/m² | - |
| 1777972725 | 7.78° C | 47% | 1007 hPa | 0 mm | 0.89 m/s, 261° | 0 W/m² | - |
| 1777972423 | 8.33° C | 47% | 1007 hPa | 0 mm | 0 m/s | 0 W/m² | - |
| 1777972121 | 8.33° C | 46% | 1006.7 hPa | 0 mm | 1.34 m/s, 228° | 0 W/m² | - |
| 1777971819 | 8.33° C | 47% | 1006.3 hPa | 0 mm | 0.89 m/s, 335° | 0 W/m² | - |
| 1777971516 | 8.33° C | 45% | 1006.3 hPa | 0 mm | 0.89 m/s, 355° | 0 W/m² | - |
| 1777971214 | 8.33° C | 47% | 1006.2 hPa | 0 mm | 0 m/s | 0 W/m² | - |
| 1777970911 | 8.33° C | 46% | 1006 hPa | 0 mm | 0 m/s | 0 W/m² | - |
| 1777970609 | 8.89° C | 46% | 1005.9 hPa | 0 mm | 0.45 m/s, 316° | 0 W/m² | - |
| 1777970306 | 8.89° C | 46% | 1005.9 hPa | 0 mm | 1.79 m/s, 330° | 0 W/m² | - |
| 1777970004 | 8.89° C | 45% | 1005.8 hPa | 0 mm | 0.89 m/s, 302° | 0 W/m² | - |
| 1777969700 | 8.89° C | 45% | 1005.8 hPa | 0 mm | 0.45 m/s, 355° | 0 W/m² | - |
| 1777969397 | 8.89° C | 48% | 1005.7 hPa | 0 mm | 1.79 m/s, 344° | 0 W/m² | - |
| 1777969093 | 8.89° C | 44% | 1005.6 hPa | 0 mm | 0.89 m/s, 253° | 0 W/m² | - |
* Rain latest hour (hover to see other rain measurements)
** Current wind speed in m/s (hover to see current wind gust speed)